{"data":{"norad_id":54243,"epoch":"2026-05-25T03:42:38.615040Z","epoch_age_seconds":51798,"freshness":"FRESH","line1":"1 54243U 22153A   26145.15461360  .00000011  00000+0  00000+0 0  9995","line2":"2 54243   0.0433 107.8970 0001343 311.2572 118.2504  1.00271922  6904","mean_motion":1.00271922,"eccentricity":0.0001343,"inclination_deg":0.0433,"raan_deg":107.897,"arg_perigee_deg":311.2572,"mean_anomaly_deg":118.2504,"bstar":0,"rev_number":690,"period_min":1436.0949419121,"perigee_km":35780.893836817,"apogee_km":35792.219273506,"semimajor_km":42164.693555161,"source":"CELESTRAK","updated_at":"2026-05-25T13:38:14.338923Z"}}